Flag for Germany Weather past 2 weeks in Osnabrück, Lower Saxony, Germany

Now
36 °F

Fog.


Feels Like: 36 °F
Forecast: 35 / 57 °F
Wind: 1 mph from Northwest

Location: Muenster / Osnabrueck

Current Time: Apr 18, 2015 at 5:57:18 AM

Latest Report: Apr 18, 2015 at 5:20 AM


Visibility: N/A

Pressure: 30.27 "Hg

Humidity: 87%

Dew point: 32 °F

Location of OsnabrückLocation

Historic Weather in Osnabrück — Graph

°F

Osnabrück temperature yesterday

Maximum temperature yesterday: 54 °F (at 2:20 PM)
Minimum temperature yesterday: 39 °F (at 5:20 AM)
Average temperature yesterday: 47 °F

Past Weeks' High & Low Weather Summary

 TemperatureHumidityPressure
High73 °F (Apr 15, 2:50 PM)100% (Apr 5, 7:50 AM)30.60 "Hg (Apr 5, 7:50 AM)
Low28 °F (Apr 5, 7:20 AM)31% (Apr 12, 7:20 PM)29.92 "Hg (Apr 15, 5:50 PM)
Average48 °F69%30.23 "Hg
* Reported Apr 3 4:20 AM — Apr 18 4:20 AM, Osnabrück, Weather by CustomWeather, © 2015

Note: Actual official high and low records may vary slightly from our data, if they occured in-between our weather recording intervals... More about our weather records

Advertising

Osnabrück weather history for previous 24 hours

 ConditionsComfort  
Time TempWeatherWind HumidityBarometerVisibility
4:20 AM
Sat, Apr 18
36 °FClear.2 mph93%30.27 "Hg10 mi
3:50 AM36 °FClear.3 mph87%30.27 "Hg10 mi
3:20 AM37 °FClear.3 mph87%30.27 "Hg10 mi
2:50 AM37 °FClear.5 mph87%30.24 "Hg10 mi
2:20 AM37 °FClear.5 mph81%30.24 "Hg10 mi
1:50 AM39 °FClear.6 mph75%30.24 "Hg10 mi
1:20 AM39 °FClear.6 mph75%30.24 "Hg10 mi
12:50 AM39 °FClear.6 mph75%30.24 "Hg10 mi
12:20 AM41 °FClear.6 mph70%30.21 "Hg10 mi
11:50 PM
Fri, Apr 17
41 °FClear.6 mph70%30.21 "Hg10 mi
11:20 PM43 °FClear.6 mph66%30.21 "Hg10 mi
10:50 PM45 °FClear.7 mph61%30.18 "Hg10 mi
10:20 PM45 °FClear.6 mph61%30.18 "Hg10 mi
9:50 PM45 °FClear.3 mph57%30.18 "Hg10 mi
9:20 PM46 °FSunny.3 mph53%30.15 "Hg10 mi
8:50 PM46 °FSunny.5 mph53%30.15 "Hg10 mi
8:20 PM48 °FSunny.6 mph50%30.12 "Hg10 mi
7:50 PM50 °FSunny.8 mph47%30.12 "Hg10 mi
7:20 PM52 °FSunny.8 mph47%30.09 "Hg10 mi
6:50 PM52 °FSunny.10 mph41%30.09 "Hg10 mi
6:20 PM54 °FSunny.8 mph41%30.09 "Hg10 mi
5:50 PM54 °FSunny.8 mph41%30.09 "Hg10 mi
5:20 PM54 °FSunny.10 mph41%30.07 "Hg10 mi
4:50 PM54 °FSunny.8 mph44%30.07 "Hg10 mi
4:20 PM54 °FSunny.9 mph44%30.07 "Hg10 mi
3:50 PM54 °FScattered clouds.10 mph44%30.07 "HgN/A
3:20 PM52 °FPartly sunny.10 mph50%30.07 "HgN/A
2:50 PM52 °FPartly sunny.9 mph54%30.07 "HgN/A
2:20 PM54 °FPartly sunny.8 mph47%30.07 "HgN/A
1:50 PM50 °FPartly sunny.7 mph58%30.07 "HgN/A
1:20 PM52 °FPartly sunny.8 mph54%30.07 "HgN/A
12:50 PM50 °FScattered clouds.7 mph58%30.07 "HgN/A
12:20 PM50 °FPartly sunny.8 mph62%30.07 "HgN/A
11:50 AM50 °FPartly sunny.7 mph62%30.07 "HgN/A
11:20 AM48 °FBroken clouds.8 mph62%30.07 "HgN/A
10:50 AM48 °FBroken clouds.6 mph62%30.07 "HgN/A
10:20 AM46 °FBroken clouds.6 mph71%30.07 "HgN/A
9:50 AM45 °FBroken clouds.6 mph76%30.07 "HgN/A
9:20 AM45 °FBroken clouds.7 mph76%30.07 "HgN/A
8:50 AM45 °FBroken clouds.3 mph81%30.04 "HgN/A
8:20 AM43 °FPartly sunny.3 mph81%30.04 "HgN/A
7:50 AM43 °FSunny.3 mph81%30.04 "Hg10 mi
7:20 AM41 °FClear.3 mph87%30.04 "Hg10 mi
6:50 AM39 °FClear.3 mph93%30.04 "Hg10 mi
6:20 AM39 °FClear.3 mph87%30.01 "Hg10 mi
5:20 AM39 °FClear.2 mph87%30.01 "Hg10 mi
Weather by CustomWeather, © 2015

See weather overviewHow to use our weather pages